Year,Month,Day,Hour,Minute,Value (Times are PST for temperature in C)
2014,08,11,00,00,17.30
2014,08,11,00,01,17.30
2014,08,11,00,02,17.20
2014,08,11,00,03,17.20
2014,08,11,00,04,17.20
2014,08,11,00,05,17.20
2014,08,11,00,06,17.20
2014,08,11,00,07,17.20
2014,08,11,00,08,17.20
2014,08,11,00,09,17.10
2014,08,11,00,10,17.10
2014,08,11,00,11,17.10
2014,08,11,00,12,17.10
2014,08,11,00,13,17.10
2014,08,11,00,14,17.10
2014,08,11,00,15,17.10
2014,08,11,00,16,17.10
2014,08,11,00,17,17.10
2014,08,11,00,18,17.10
2014,08,11,00,19,17.10
2014,08,11,00,20,17.00
2014,08,11,00,21,17.00
2014,08,11,00,22,17.00
2014,08,11,00,23,17.00
2014,08,11,00,24,17.00
2014,08,11,00,25,17.00
2014,08,11,00,26,17.00
2014,08,11,00,27,17.00
2014,08,11,00,28,16.90
2014,08,11,00,29,16.90
2014,08,11,00,30,16.90
2014,08,11,00,31,16.90
2014,08,11,00,32,16.90
2014,08,11,00,33,16.90
2014,08,11,00,34,16.90
2014,08,11,00,35,16.80
2014,08,11,00,36,16.80
2014,08,11,00,37,16.80
2014,08,11,00,38,16.80
2014,08,11,00,39,16.80
2014,08,11,00,40,16.70
2014,08,11,00,41,16.70
2014,08,11,00,42,16.70
2014,08,11,00,43,16.60
2014,08,11,00,44,16.60
2014,08,11,00,45,16.60
2014,08,11,00,46,16.60
2014,08,11,00,47,16.60
2014,08,11,00,48,16.50
2014,08,11,00,49,16.50
2014,08,11,00,50,16.50
2014,08,11,00,51,16.40
2014,08,11,00,52,16.40
2014,08,11,00,53,16.40
2014,08,11,00,54,16.40
2014,08,11,00,55,16.30
2014,08,11,00,56,16.30
2014,08,11,00,57,16.30
2014,08,11,00,58,16.30
2014,08,11,00,59,16.30
2014,08,11,01,00,16.30
2014,08,11,01,01,16.20
2014,08,11,01,02,16.20
2014,08,11,01,03,16.20
2014,08,11,01,04,16.20
2014,08,11,01,05,16.20
2014,08,11,01,06,16.20
2014,08,11,01,07,16.20
2014,08,11,01,08,16.20
2014,08,11,01,09,16.20
2014,08,11,01,10,16.30
2014,08,11,01,11,16.30
2014,08,11,01,12,16.30
2014,08,11,01,13,16.30
2014,08,11,01,14,16.30
2014,08,11,01,15,16.30
2014,08,11,01,16,16.30
2014,08,11,01,17,16.20
2014,08,11,01,18,16.20
2014,08,11,01,19,16.20
2014,08,11,01,20,16.20
2014,08,11,01,21,16.20
2014,08,11,01,22,16.20
2014,08,11,01,23,16.20
2014,08,11,01,24,16.20
2014,08,11,01,25,16.20
2014,08,11,01,26,16.10
2014,08,11,01,27,16.10
2014,08,11,01,28,16.10
2014,08,11,01,29,16.10
2014,08,11,01,30,16.10
2014,08,11,01,31,16.00
2014,08,11,01,32,16.00
2014,08,11,01,33,15.90
2014,08,11,01,34,15.90
2014,08,11,01,35,15.90
2014,08,11,01,36,15.90
2014,08,11,01,37,15.90
2014,08,11,01,38,15.90
2014,08,11,01,39,15.80
2014,08,11,01,40,15.80
2014,08,11,01,41,15.80
2014,08,11,01,42,15.80
2014,08,11,01,43,15.80
2014,08,11,01,44,15.80
2014,08,11,01,45,15.80
2014,08,11,01,46,15.80
2014,08,11,01,47,15.80
2014,08,11,01,48,15.80
2014,08,11,01,49,15.80
2014,08,11,01,50,15.80
2014,08,11,01,51,15.80
2014,08,11,01,52,15.90
2014,08,11,01,53,15.90
2014,08,11,01,54,15.80
2014,08,11,01,55,15.80
2014,08,11,01,56,15.90
2014,08,11,01,57,15.90
2014,08,11,01,58,15.90
2014,08,11,01,59,15.90
2014,08,11,02,00,15.90
2014,08,11,02,01,15.90
2014,08,11,02,02,15.90
2014,08,11,02,03,15.90
2014,08,11,02,04,15.90
2014,08,11,02,05,15.90
2014,08,11,02,06,15.80
2014,08,11,02,07,15.80
2014,08,11,02,08,15.80
2014,08,11,02,09,15.80
2014,08,11,02,10,15.80
2014,08,11,02,11,15.80
2014,08,11,02,12,15.80
2014,08,11,02,13,15.80
2014,08,11,02,14,15.80
2014,08,11,02,15,15.80
2014,08,11,02,16,15.80
2014,08,11,02,17,15.80
2014,08,11,02,18,15.80
2014,08,11,02,19,15.70
2014,08,11,02,20,15.70
2014,08,11,02,21,15.70
2014,08,11,02,22,15.70
2014,08,11,02,23,15.70
2014,08,11,02,24,15.70
2014,08,11,02,25,15.70
2014,08,11,02,26,15.70
2014,08,11,02,27,15.70
2014,08,11,02,28,15.70
2014,08,11,02,29,15.70
2014,08,11,02,30,15.70
2014,08,11,02,31,15.60
2014,08,11,02,32,15.60
2014,08,11,02,33,15.60
2014,08,11,02,34,15.60
2014,08,11,02,35,15.60
2014,08,11,02,36,15.60
2014,08,11,02,37,15.50
2014,08,11,02,38,15.50
2014,08,11,02,39,15.50
2014,08,11,02,40,15.40
2014,08,11,02,41,15.40
2014,08,11,02,42,15.40
2014,08,11,02,43,15.40
2014,08,11,02,44,15.40
2014,08,11,02,45,15.40
2014,08,11,02,46,15.40
2014,08,11,02,47,15.40
2014,08,11,02,48,15.40
2014,08,11,02,49,15.40
2014,08,11,02,50,15.40
2014,08,11,02,51,15.40
2014,08,11,02,52,15.40
2014,08,11,02,53,15.40
2014,08,11,02,54,15.30
2014,08,11,02,55,15.30
2014,08,11,02,56,15.30
2014,08,11,02,57,15.30
2014,08,11,02,58,15.30
2014,08,11,02,59,15.30
2014,08,11,03,00,15.30
2014,08,11,03,01,15.30
2014,08,11,03,02,15.30
2014,08,11,03,03,15.30
2014,08,11,03,04,15.20
2014,08,11,03,05,15.20
2014,08,11,03,06,15.20
2014,08,11,03,07,15.20
2014,08,11,03,08,15.20
2014,08,11,03,09,15.20
2014,08,11,03,10,15.20
2014,08,11,03,11,15.20
2014,08,11,03,12,15.20
2014,08,11,03,13,15.20
2014,08,11,03,14,15.20
2014,08,11,03,15,15.20
2014,08,11,03,16,15.20
2014,08,11,03,17,15.10
2014,08,11,03,18,15.10
2014,08,11,03,19,15.10
2014,08,11,03,20,15.10
2014,08,11,03,21,15.10
2014,08,11,03,22,15.00
2014,08,11,03,23,15.00
2014,08,11,03,24,15.00
2014,08,11,03,25,14.90
2014,08,11,03,26,14.90
2014,08,11,03,27,14.80
2014,08,11,03,28,14.80
2014,08,11,03,29,14.80
2014,08,11,03,30,14.80
2014,08,11,03,31,14.80
2014,08,11,03,32,14.80
2014,08,11,03,33,14.70
2014,08,11,03,34,14.70
2014,08,11,03,35,14.70
2014,08,11,03,36,14.70
2014,08,11,03,37,14.80
2014,08,11,03,38,14.80
2014,08,11,03,39,14.80
2014,08,11,03,40,14.80
2014,08,11,03,41,14.80
2014,08,11,03,42,14.70
2014,08,11,03,43,14.70
2014,08,11,03,44,14.70
2014,08,11,03,45,14.70
2014,08,11,03,46,14.60
2014,08,11,03,47,14.60
2014,08,11,03,48,14.60
2014,08,11,03,49,14.60
2014,08,11,03,50,14.60
2014,08,11,03,51,14.60
2014,08,11,03,52,14.60
2014,08,11,03,53,14.60
2014,08,11,03,54,14.60
2014,08,11,03,55,14.60
2014,08,11,03,56,14.60
2014,08,11,03,57,14.60
2014,08,11,03,58,14.60
2014,08,11,03,59,14.50
2014,08,11,04,00,14.50
2014,08,11,04,01,14.50
2014,08,11,04,02,14.50
2014,08,11,04,03,14.50
2014,08,11,04,04,14.50
2014,08,11,04,05,14.50
2014,08,11,04,06,14.50
2014,08,11,04,07,14.50
2014,08,11,04,08,14.50
2014,08,11,04,09,14.40
2014,08,11,04,10,14.40
2014,08,11,04,11,14.40
2014,08,11,04,12,14.30
2014,08,11,04,13,14.30
2014,08,11,04,14,14.30
2014,08,11,04,15,14.30
2014,08,11,04,16,14.30
2014,08,11,04,17,14.20
2014,08,11,04,18,14.20
2014,08,11,04,19,14.20
2014,08,11,04,20,14.20
2014,08,11,04,21,14.20
2014,08,11,04,22,14.20
2014,08,11,04,23,14.20
2014,08,11,04,24,14.20
2014,08,11,04,25,14.20
2014,08,11,04,26,14.20
2014,08,11,04,27,14.20
2014,08,11,04,28,14.20
2014,08,11,04,29,14.20
2014,08,11,04,30,14.20
2014,08,11,04,31,14.20
2014,08,11,04,32,14.20
2014,08,11,04,33,14.20
2014,08,11,04,34,14.10
2014,08,11,04,35,14.10
2014,08,11,04,36,14.10
2014,08,11,04,37,14.10
2014,08,11,04,38,14.10
2014,08,11,04,39,14.10
2014,08,11,04,40,14.10
2014,08,11,04,41,14.10
2014,08,11,04,42,14.00
2014,08,11,04,43,14.00
2014,08,11,04,44,14.00
2014,08,11,04,45,14.00
2014,08,11,04,46,14.00
2014,08,11,04,47,14.00
2014,08,11,04,48,14.00
2014,08,11,04,49,14.00
2014,08,11,04,50,14.00
2014,08,11,04,51,14.00
2014,08,11,04,52,14.00
2014,08,11,04,53,14.00
2014,08,11,04,54,14.00
2014,08,11,04,55,14.00
2014,08,11,04,56,14.00
2014,08,11,04,57,14.00
2014,08,11,04,58,13.90
2014,08,11,04,59,13.90
2014,08,11,05,00,13.90
2014,08,11,05,01,13.90
2014,08,11,05,02,13.90
2014,08,11,05,03,13.90
2014,08,11,05,04,13.90
2014,08,11,05,05,13.90
2014,08,11,05,06,13.90
2014,08,11,05,07,13.90
2014,08,11,05,08,13.90
2014,08,11,05,09,13.90
2014,08,11,05,10,13.90
2014,08,11,05,11,13.90
2014,08,11,05,12,13.80
2014,08,11,05,13,13.90
2014,08,11,05,14,13.80
2014,08,11,05,15,13.80
2014,08,11,05,16,13.80
2014,08,11,05,17,13.90
2014,08,11,05,18,13.90
2014,08,11,05,19,13.90
2014,08,11,05,20,13.90
2014,08,11,05,21,13.90
2014,08,11,05,22,13.90
2014,08,11,05,23,13.80
2014,08,11,05,24,13.80
2014,08,11,05,25,13.80
2014,08,11,05,26,13.80
2014,08,11,05,27,13.90
2014,08,11,05,28,13.90
2014,08,11,05,29,13.90
2014,08,11,05,30,13.90
2014,08,11,05,31,14.00
2014,08,11,05,32,14.00
2014,08,11,05,33,14.00
2014,08,11,05,34,14.00
2014,08,11,05,35,14.00
2014,08,11,05,36,14.00
2014,08,11,05,37,14.00
2014,08,11,05,38,13.90
2014,08,11,05,39,13.90
2014,08,11,05,40,13.90
2014,08,11,05,41,13.90
2014,08,11,05,42,13.90
2014,08,11,05,43,13.90
2014,08,11,05,44,13.90
2014,08,11,05,45,13.90
2014,08,11,05,46,13.90
2014,08,11,05,47,13.90
2014,08,11,05,48,13.80
2014,08,11,05,49,13.80
2014,08,11,05,50,13.80
2014,08,11,05,51,13.80
2014,08,11,05,52,13.80
2014,08,11,05,53,13.80
2014,08,11,05,54,13.80
2014,08,11,05,55,13.80
2014,08,11,05,56,13.80
2014,08,11,05,57,13.80
2014,08,11,05,58,13.80
2014,08,11,05,59,13.70
2014,08,11,06,00,13.70
2014,08,11,06,01,13.70
2014,08,11,06,02,13.70
2014,08,11,06,03,13.70
2014,08,11,06,04,13.70
2014,08,11,06,05,13.70
2014,08,11,06,06,13.70
2014,08,11,06,07,13.70
2014,08,11,06,08,13.70
2014,08,11,06,09,13.70
2014,08,11,06,10,13.70
2014,08,11,06,11,13.70
2014,08,11,06,12,13.70
2014,08,11,06,13,13.60
2014,08,11,06,14,13.60
2014,08,11,06,15,13.60
2014,08,11,06,16,13.60
2014,08,11,06,17,13.60
2014,08,11,06,18,13.50
2014,08,11,06,19,13.50
2014,08,11,06,20,13.50
2014,08,11,06,21,13.40
2014,08,11,06,22,13.40
2014,08,11,06,23,13.40
2014,08,11,06,24,13.40
2014,08,11,06,25,13.40
2014,08,11,06,26,13.40
2014,08,11,06,27,13.40
2014,08,11,06,28,13.40
2014,08,11,06,29,13.50
2014,08,11,06,30,13.50
2014,08,11,06,31,13.50
2014,08,11,06,32,13.60
2014,08,11,06,33,13.60
2014,08,11,06,34,13.60
2014,08,11,06,35,13.60
2014,08,11,06,36,13.60
2014,08,11,06,37,13.60
2014,08,11,06,38,13.60
2014,08,11,06,39,13.60
2014,08,11,06,40,13.60
2014,08,11,06,41,13.60
2014,08,11,06,42,13.60
2014,08,11,06,43,13.70
2014,08,11,06,44,13.70
2014,08,11,06,45,13.70
2014,08,11,06,46,13.80
2014,08,11,06,47,13.80
2014,08,11,06,48,13.80
2014,08,11,06,49,13.80
2014,08,11,06,50,13.90
2014,08,11,06,51,13.90
2014,08,11,06,52,14.00
2014,08,11,06,53,14.00
2014,08,11,06,54,14.10
2014,08,11,06,55,14.10
2014,08,11,06,56,14.10
2014,08,11,06,57,14.20
2014,08,11,06,58,14.30
2014,08,11,06,59,14.30
2014,08,11,07,00,14.40
2014,08,11,07,01,14.40
2014,08,11,07,02,14.50
2014,08,11,07,03,14.60
2014,08,11,07,04,14.60
2014,08,11,07,05,14.70
2014,08,11,07,06,14.70
2014,08,11,07,07,14.80
2014,08,11,07,08,14.80
2014,08,11,07,09,14.90
2014,08,11,07,10,15.00
2014,08,11,07,11,15.00
2014,08,11,07,12,15.10
2014,08,11,07,13,15.10
2014,08,11,07,14,15.20
2014,08,11,07,15,15.20
2014,08,11,07,16,15.20
2014,08,11,07,17,15.30
2014,08,11,07,18,15.30
2014,08,11,07,19,15.40
2014,08,11,07,20,15.50
2014,08,11,07,21,15.60
2014,08,11,07,22,15.70
2014,08,11,07,23,15.80
2014,08,11,07,24,15.90
2014,08,11,07,25,16.00
2014,08,11,07,26,16.10
2014,08,11,07,27,16.20
2014,08,11,07,28,16.30
2014,08,11,07,29,16.50
2014,08,11,07,30,16.60
2014,08,11,07,31,16.70
2014,08,11,07,32,16.80
2014,08,11,07,33,17.00
2014,08,11,07,34,17.10
2014,08,11,07,35,17.20
2014,08,11,07,36,17.30
2014,08,11,07,37,17.40
2014,08,11,07,38,17.50
2014,08,11,07,39,17.60
2014,08,11,07,40,17.70
2014,08,11,07,41,17.80
2014,08,11,07,42,17.90
2014,08,11,07,43,18.00
2014,08,11,07,44,18.10
2014,08,11,07,45,18.20
2014,08,11,07,46,18.40
2014,08,11,07,47,18.50
2014,08,11,07,48,18.70
2014,08,11,07,49,18.70
2014,08,11,07,50,18.80
2014,08,11,07,51,18.80
2014,08,11,07,52,18.80
2014,08,11,07,53,18.90
2014,08,11,07,54,18.90
2014,08,11,07,55,18.90
2014,08,11,07,56,18.90
2014,08,11,07,57,18.90
2014,08,11,07,58,18.90
2014,08,11,07,59,18.90
2014,08,11,08,00,18.90
2014,08,11,08,01,18.90
2014,08,11,08,02,18.90
2014,08,11,08,03,18.90
2014,08,11,08,04,18.90
2014,08,11,08,05,18.90
2014,08,11,08,06,19.00
2014,08,11,08,07,19.10
2014,08,11,08,08,19.20
2014,08,11,08,09,19.30
2014,08,11,08,10,19.40
2014,08,11,08,11,19.50
2014,08,11,08,12,19.50
2014,08,11,08,13,19.60
2014,08,11,08,14,19.70
2014,08,11,08,15,19.70
2014,08,11,08,16,19.80
2014,08,11,08,17,19.80
2014,08,11,08,18,19.80
2014,08,11,08,19,19.90
2014,08,11,08,20,19.90
2014,08,11,08,21,20.00
2014,08,11,08,22,20.00
2014,08,11,08,23,20.10
2014,08,11,08,24,20.20
2014,08,11,08,25,20.30
2014,08,11,08,26,20.40
2014,08,11,08,27,20.50
2014,08,11,08,28,20.50
2014,08,11,08,29,20.60
2014,08,11,08,30,20.60
2014,08,11,08,31,20.60
2014,08,11,08,32,20.60
2014,08,11,08,33,20.70
2014,08,11,08,34,20.70
2014,08,11,08,35,20.80
2014,08,11,08,36,20.90
2014,08,11,08,37,21.10
2014,08,11,08,38,21.10
2014,08,11,08,39,21.20
2014,08,11,08,40,21.20
2014,08,11,08,41,21.30
2014,08,11,08,42,21.30
2014,08,11,08,43,21.40
2014,08,11,08,44,21.50
2014,08,11,08,45,21.60
2014,08,11,08,46,21.70
2014,08,11,08,47,21.80
2014,08,11,08,48,21.90
2014,08,11,08,49,21.90
2014,08,11,08,50,22.00
2014,08,11,08,51,22.10
2014,08,11,08,52,22.20
2014,08,11,08,53,22.30
2014,08,11,08,54,22.40
2014,08,11,08,55,22.40
2014,08,11,08,56,22.40
2014,08,11,08,57,22.40
2014,08,11,08,58,22.40
2014,08,11,08,59,22.30
2014,08,11,09,00,22.30
2014,08,11,09,01,22.30
2014,08,11,09,02,22.30
2014,08,11,09,03,22.20
2014,08,11,09,04,22.20
2014,08,11,09,05,22.20
2014,08,11,09,06,22.20
2014,08,11,09,07,22.30
2014,08,11,09,08,22.30
2014,08,11,09,09,22.30
2014,08,11,09,10,22.30
2014,08,11,09,11,22.30
2014,08,11,09,12,22.30
2014,08,11,09,13,22.30
2014,08,11,09,14,22.30
2014,08,11,09,15,22.30
2014,08,11,09,16,22.30
2014,08,11,09,17,22.30
2014,08,11,09,18,22.30
2014,08,11,09,19,22.30
2014,08,11,09,20,22.30
2014,08,11,09,21,22.30
2014,08,11,09,22,22.40
2014,08,11,09,23,22.40
2014,08,11,09,24,22.50
2014,08,11,09,25,22.50
2014,08,11,09,26,22.60
2014,08,11,09,27,22.60
2014,08,11,09,28,22.70
2014,08,11,09,29,22.70
2014,08,11,09,30,22.60
2014,08,11,09,31,22.60
2014,08,11,09,32,22.70
2014,08,11,09,33,22.70
2014,08,11,09,34,22.70
2014,08,11,09,35,22.70
2014,08,11,09,36,22.80
2014,08,11,09,37,22.80
2014,08,11,09,38,22.90
2014,08,11,09,39,22.90
2014,08,11,09,40,23.00
2014,08,11,09,41,23.00
2014,08,11,09,42,22.90
2014,08,11,09,43,23.00
2014,08,11,09,44,22.90
2014,08,11,09,45,22.90
2014,08,11,09,46,23.00
2014,08,11,09,47,23.10
2014,08,11,09,48,23.20
2014,08,11,09,49,23.20
2014,08,11,09,50,23.20
2014,08,11,09,51,23.20
2014,08,11,09,52,23.10
2014,08,11,09,53,23.10
2014,08,11,09,54,23.20
2014,08,11,09,55,23.30
2014,08,11,09,56,23.30
2014,08,11,09,57,23.30
2014,08,11,09,58,23.40
2014,08,11,09,59,23.50
2014,08,11,10,00,23.50
2014,08,11,10,01,23.60
2014,08,11,10,02,23.60
2014,08,11,10,03,23.60
2014,08,11,10,04,23.60
2014,08,11,10,05,23.60
2014,08,11,10,06,23.60
2014,08,11,10,07,23.60
2014,08,11,10,08,23.50
2014,08,11,10,09,23.40
2014,08,11,10,10,23.50
2014,08,11,10,11,23.50
2014,08,11,10,12,23.50
2014,08,11,10,13,23.60
2014,08,11,10,14,23.70
2014,08,11,10,15,23.70
2014,08,11,10,16,23.70
2014,08,11,10,17,23.70
2014,08,11,10,18,23.80
2014,08,11,10,19,23.80
2014,08,11,10,20,23.80
2014,08,11,10,21,23.80
2014,08,11,10,22,23.80
2014,08,11,10,23,23.80
2014,08,11,10,24,23.80
2014,08,11,10,25,23.80
2014,08,11,10,26,23.80
2014,08,11,10,27,23.80
2014,08,11,10,28,23.80
2014,08,11,10,29,23.90
2014,08,11,10,30,23.90
2014,08,11,10,31,24.00
2014,08,11,10,32,24.00
2014,08,11,10,33,24.00
2014,08,11,10,34,24.00
2014,08,11,10,35,24.00
2014,08,11,10,36,24.10
2014,08,11,10,37,24.20
2014,08,11,10,38,24.20
2014,08,11,10,39,24.10
2014,08,11,10,40,24.10
2014,08,11,10,41,24.20
2014,08,11,10,42,24.30
2014,08,11,10,43,24.30
2014,08,11,10,44,24.40
2014,08,11,10,45,24.40
2014,08,11,10,46,24.50
2014,08,11,10,47,24.60
2014,08,11,10,48,24.60
2014,08,11,10,49,24.70
2014,08,11,10,50,24.90
2014,08,11,10,51,25.00
2014,08,11,10,52,25.00
2014,08,11,10,53,25.00
2014,08,11,10,54,25.20
2014,08,11,10,55,25.30
2014,08,11,10,56,25.30
2014,08,11,10,57,25.30
2014,08,11,10,58,25.30
2014,08,11,10,59,25.30
2014,08,11,11,00,25.30
2014,08,11,11,01,25.30
2014,08,11,11,02,25.20
2014,08,11,11,03,25.20
2014,08,11,11,04,25.20
2014,08,11,11,05,25.30
2014,08,11,11,06,25.40
2014,08,11,11,07,25.40
2014,08,11,11,08,25.50
2014,08,11,11,09,25.50
2014,08,11,11,10,25.50
2014,08,11,11,11,25.50
2014,08,11,11,12,25.40
2014,08,11,11,13,25.40
2014,08,11,11,14,25.40
2014,08,11,11,15,25.40
2014,08,11,11,16,25.40
2014,08,11,11,17,25.50
2014,08,11,11,18,25.60
2014,08,11,11,19,25.60
2014,08,11,11,20,25.60
2014,08,11,11,21,25.70
2014,08,11,11,22,25.70
2014,08,11,11,23,25.80
2014,08,11,11,24,25.80
2014,08,11,11,25,25.90
2014,08,11,11,26,25.90
2014,08,11,11,27,25.90
2014,08,11,11,28,25.90
2014,08,11,11,29,25.90
2014,08,11,11,30,26.00
2014,08,11,11,31,26.10
2014,08,11,11,32,26.00
2014,08,11,11,33,25.80
2014,08,11,11,34,25.80
2014,08,11,11,35,25.70
2014,08,11,11,36,25.70
2014,08,11,11,37,25.70
2014,08,11,11,38,25.60
2014,08,11,11,39,25.60
2014,08,11,11,40,25.60
2014,08,11,11,41,25.60
2014,08,11,11,42,25.60
2014,08,11,11,43,25.60
2014,08,11,11,44,25.60
2014,08,11,11,45,25.70
2014,08,11,11,46,25.80
2014,08,11,11,47,25.80
2014,08,11,11,48,25.90
2014,08,11,11,49,25.90
2014,08,11,11,50,26.00
2014,08,11,11,51,26.10
2014,08,11,11,52,26.10
2014,08,11,11,53,26.20
2014,08,11,11,54,26.20
2014,08,11,11,55,26.20
2014,08,11,11,56,26.20
2014,08,11,11,57,26.20
2014,08,11,11,58,26.20
2014,08,11,11,59,26.30
2014,08,11,12,00,26.40
2014,08,11,12,01,26.50
2014,08,11,12,02,26.50
2014,08,11,12,03,26.60
2014,08,11,12,04,26.60
2014,08,11,12,05,26.60
2014,08,11,12,06,26.60
2014,08,11,12,07,26.60
2014,08,11,12,08,26.50
2014,08,11,12,09,26.40
2014,08,11,12,10,26.50
2014,08,11,12,11,26.50
2014,08,11,12,12,26.50
2014,08,11,12,13,26.50
2014,08,11,12,14,26.60
2014,08,11,12,15,26.70
2014,08,11,12,16,26.80
2014,08,11,12,17,26.90
2014,08,11,12,18,27.00
2014,08,11,12,19,27.10
2014,08,11,12,20,27.00
2014,08,11,12,21,27.00
2014,08,11,12,22,27.00
2014,08,11,12,23,27.10
2014,08,11,12,24,27.20
2014,08,11,12,25,27.30
2014,08,11,12,26,27.30
2014,08,11,12,27,27.30
2014,08,11,12,28,27.30
2014,08,11,12,29,27.40
2014,08,11,12,30,27.40
2014,08,11,12,31,27.40
2014,08,11,12,32,27.50
2014,08,11,12,33,27.60
2014,08,11,12,34,27.80
2014,08,11,12,35,27.80
2014,08,11,12,36,27.90
2014,08,11,12,37,27.90
2014,08,11,12,38,27.90
2014,08,11,12,39,27.90
2014,08,11,12,40,27.90
2014,08,11,12,41,27.90
2014,08,11,12,42,27.90
2014,08,11,12,43,27.80
2014,08,11,12,44,27.80
2014,08,11,12,45,27.80
2014,08,11,12,46,27.80
2014,08,11,12,47,27.90
2014,08,11,12,48,27.90
2014,08,11,12,49,27.90
2014,08,11,12,50,28.00
2014,08,11,12,51,28.00
2014,08,11,12,52,28.10
2014,08,11,12,53,28.10
2014,08,11,12,54,28.20
2014,08,11,12,55,28.20
2014,08,11,12,56,28.30
2014,08,11,12,57,28.30
2014,08,11,12,58,28.40
2014,08,11,12,59,28.50
2014,08,11,13,00,28.50
2014,08,11,13,01,28.50
2014,08,11,13,02,28.40
2014,08,11,13,03,28.30
2014,08,11,13,04,28.20
2014,08,11,13,05,28.40
2014,08,11,13,06,28.50
2014,08,11,13,07,28.60
2014,08,11,13,08,28.80
2014,08,11,13,09,28.90
2014,08,11,13,10,29.00
2014,08,11,13,11,29.10
2014,08,11,13,12,29.00
2014,08,11,13,13,28.80
2014,08,11,13,14,28.70
2014,08,11,13,15,28.70
2014,08,11,13,16,28.60
2014,08,11,13,17,28.50
2014,08,11,13,18,28.40
2014,08,11,13,19,28.50
2014,08,11,13,20,28.60
2014,08,11,13,21,28.60
2014,08,11,13,22,28.70
2014,08,11,13,23,28.80
2014,08,11,13,24,29.00
2014,08,11,13,25,29.00
2014,08,11,13,26,28.90
2014,08,11,13,27,28.80
2014,08,11,13,28,28.80
2014,08,11,13,29,28.80
2014,08,11,13,30,28.80
2014,08,11,13,31,28.80
2014,08,11,13,32,28.90
2014,08,11,13,33,28.90
2014,08,11,13,34,28.80
2014,08,11,13,35,28.80
2014,08,11,13,36,28.80
2014,08,11,13,37,28.70
2014,08,11,13,38,28.60
2014,08,11,13,39,28.80
2014,08,11,13,40,28.80
2014,08,11,13,41,28.80
2014,08,11,13,42,28.90
2014,08,11,13,43,28.90
2014,08,11,13,44,28.90
2014,08,11,13,45,29.00
2014,08,11,13,46,29.10
2014,08,11,13,47,29.20
2014,08,11,13,48,29.30
2014,08,11,13,49,29.30
2014,08,11,13,50,29.30
2014,08,11,13,51,29.20
2014,08,11,13,52,29.20
2014,08,11,13,53,29.20
2014,08,11,13,54,29.10
2014,08,11,13,55,29.10
2014,08,11,13,56,29.10
2014,08,11,13,57,29.10
2014,08,11,13,58,29.00
2014,08,11,13,59,28.90
2014,08,11,14,00,28.80
2014,08,11,14,01,28.80
2014,08,11,14,02,28.80
2014,08,11,14,03,28.80
2014,08,11,14,04,28.80
2014,08,11,14,05,28.70
2014,08,11,14,06,28.70
2014,08,11,14,07,28.60
2014,08,11,14,08,28.70
2014,08,11,14,09,28.70
2014,08,11,14,10,28.70
2014,08,11,14,11,28.80
2014,08,11,14,12,28.80
2014,08,11,14,13,28.80
2014,08,11,14,14,28.80
2014,08,11,14,15,28.80
2014,08,11,14,16,28.70
2014,08,11,14,17,28.70
2014,08,11,14,18,28.70
2014,08,11,14,19,28.60
2014,08,11,14,20,28.60
2014,08,11,14,21,28.60
2014,08,11,14,22,28.60
2014,08,11,14,23,28.60
2014,08,11,14,24,28.60
2014,08,11,14,25,28.60
2014,08,11,14,26,28.50
2014,08,11,14,27,28.50
2014,08,11,14,28,28.50
2014,08,11,14,29,28.50
2014,08,11,14,30,28.40
2014,08,11,14,31,28.30
2014,08,11,14,32,28.30
2014,08,11,14,33,28.20
2014,08,11,14,34,28.10
2014,08,11,14,35,28.00
2014,08,11,14,36,28.00
2014,08,11,14,37,28.10
2014,08,11,14,38,28.10
2014,08,11,14,39,28.10
2014,08,11,14,40,28.10
2014,08,11,14,41,28.00
2014,08,11,14,42,28.00
2014,08,11,14,43,28.00
2014,08,11,14,44,28.00
2014,08,11,14,45,28.10
2014,08,11,14,46,28.10
2014,08,11,14,47,28.20
2014,08,11,14,48,28.20
2014,08,11,14,49,28.30
2014,08,11,14,50,28.20
2014,08,11,14,51,28.20
2014,08,11,14,52,28.00
2014,08,11,14,53,27.80
2014,08,11,14,54,27.70
2014,08,11,14,55,27.50
2014,08,11,14,56,27.40
2014,08,11,14,57,27.10
2014,08,11,14,58,26.90
2014,08,11,14,59,26.60
2014,08,11,15,00,26.40
2014,08,11,15,01,26.10
2014,08,11,15,02,25.90
2014,08,11,15,03,25.80
2014,08,11,15,04,25.70
2014,08,11,15,05,25.60
2014,08,11,15,06,25.60
2014,08,11,15,07,25.50
2014,08,11,15,08,25.50
2014,08,11,15,09,25.50
2014,08,11,15,10,25.50
2014,08,11,15,11,25.50
2014,08,11,15,12,25.50
2014,08,11,15,13,25.40
2014,08,11,15,14,25.40
2014,08,11,15,15,25.40
2014,08,11,15,16,25.50
2014,08,11,15,17,25.50
2014,08,11,15,18,25.60
2014,08,11,15,19,25.60
2014,08,11,15,20,25.70
2014,08,11,15,21,25.80
2014,08,11,15,22,25.90
2014,08,11,15,23,26.00
2014,08,11,15,24,26.10
2014,08,11,15,25,26.20
2014,08,11,15,26,26.30
2014,08,11,15,27,26.40
2014,08,11,15,28,26.50
2014,08,11,15,29,26.60
2014,08,11,15,30,26.70
2014,08,11,15,31,26.80
2014,08,11,15,32,26.90
2014,08,11,15,33,27.10
2014,08,11,15,34,27.20
2014,08,11,15,35,27.30
2014,08,11,15,36,27.40
2014,08,11,15,37,27.50
2014,08,11,15,38,27.60
2014,08,11,15,39,27.70
2014,08,11,15,40,27.70
2014,08,11,15,41,27.80
2014,08,11,15,42,27.80
2014,08,11,15,43,27.90
2014,08,11,15,44,27.90
2014,08,11,15,45,27.90
2014,08,11,15,46,28.00
2014,08,11,15,47,28.10
2014,08,11,15,48,28.10
2014,08,11,15,49,28.20
2014,08,11,15,50,28.30
2014,08,11,15,51,28.30
2014,08,11,15,52,28.30
2014,08,11,15,53,28.30
2014,08,11,15,54,28.30
2014,08,11,15,55,28.20
2014,08,11,15,56,28.20
2014,08,11,15,57,28.10
2014,08,11,15,58,28.00
2014,08,11,15,59,27.90
2014,08,11,16,00,27.90
2014,08,11,16,01,27.80
2014,08,11,16,02,27.80
2014,08,11,16,03,27.80
2014,08,11,16,04,27.80
2014,08,11,16,05,27.80
2014,08,11,16,06,27.80
2014,08,11,16,07,27.80
2014,08,11,16,08,27.80
2014,08,11,16,09,27.80
2014,08,11,16,10,27.80
2014,08,11,16,11,27.80
2014,08,11,16,12,27.80
2014,08,11,16,13,27.90
2014,08,11,16,14,27.90
2014,08,11,16,15,27.90
2014,08,11,16,16,28.00
2014,08,11,16,17,28.10
2014,08,11,16,18,28.10
2014,08,11,16,19,28.20
2014,08,11,16,20,28.20
2014,08,11,16,21,28.20
2014,08,11,16,22,28.20
2014,08,11,16,23,28.20
2014,08,11,16,24,28.10
2014,08,11,16,25,28.10
2014,08,11,16,26,28.00
2014,08,11,16,27,28.00
2014,08,11,16,28,27.90
2014,08,11,16,29,27.80
2014,08,11,16,30,27.80
2014,08,11,16,31,27.70
2014,08,11,16,32,27.60
2014,08,11,16,33,27.60
2014,08,11,16,34,27.50
2014,08,11,16,35,27.40
2014,08,11,16,36,27.40
2014,08,11,16,37,27.30
2014,08,11,16,38,27.30
2014,08,11,16,39,27.30
2014,08,11,16,40,27.30
2014,08,11,16,41,27.30
2014,08,11,16,42,27.20
2014,08,11,16,43,27.20
2014,08,11,16,44,27.20
2014,08,11,16,45,27.30
2014,08,11,16,46,27.30
2014,08,11,16,47,27.20
2014,08,11,16,48,27.20
2014,08,11,16,49,27.20
2014,08,11,16,50,27.20
2014,08,11,16,51,27.10
2014,08,11,16,52,27.10
2014,08,11,16,53,27.10
2014,08,11,16,54,27.10
2014,08,11,16,55,27.20
2014,08,11,16,56,27.20
2014,08,11,16,57,27.20
2014,08,11,16,58,27.20
2014,08,11,16,59,27.20
2014,08,11,17,00,27.10
2014,08,11,17,01,27.10
2014,08,11,17,02,27.10
2014,08,11,17,03,27.10
2014,08,11,17,04,27.10
2014,08,11,17,05,27.10
2014,08,11,17,06,27.10
2014,08,11,17,07,27.00
2014,08,11,17,08,26.90
2014,08,11,17,09,26.90
2014,08,11,17,10,26.90
2014,08,11,17,11,27.00
2014,08,11,17,12,27.00
2014,08,11,17,13,27.00
2014,08,11,17,14,27.10
2014,08,11,17,15,27.20
2014,08,11,17,16,27.20
2014,08,11,17,17,27.20
2014,08,11,17,18,27.10
2014,08,11,17,19,27.10